QPF
0.00 0.00 0.01 0.01 0.01 0.01 0.01 0.01 0.02 0.01 0.01 0.01 0.02 0.02 0.01 0.01 0.01 0.02 0.02 0.02 0.02 0.04 0.08 0.11 0.12 0.12 0.08 0.08 0.06 0.07 0.07 0.05 0.05 0.04 0.02 0.02 0.01 0.01 0.01 0.01 0.00 0.00 0.01 0.01
0.01 0.01 0.01 0.01 0.01 0.01 0.01 0.01 0.01 0.01 0.01 0.01 0.01 0.02 0.02 0.01 0.01 0.01 0.01 0.02 0.02 0.03 0.07 0.10 0.11 0.10 0.08 0.07 0.06 0.05 0.05 0.04 0.04 0.03 0.02 0.02 0.02 0.02 0.01 0.01 0.01 0.01 0.01 0.01
0.02 0.01 0.02 0.02 0.01 0.01 0.01 0.00 0.01 0.01 0.00 0.00 0.01 0.02 0.02 0.01 0.01 0.01 0.02 0.03 0.04 0.05 0.05 0.06 0.08 0.07 0.06 0.05 0.05 0.06 0.06 0.05 0.04 0.04 0.03 0.02 0.02 0.01 0.01 0.01 0.01 0.01 0.01 0.01
0.02 0.02 0.02 0.01 0.01 0.01 0.00 0.00 0.01 0.01 0.00 0.00 0.01 0.01 0.01 0.01 0.01 0.01 0.01 0.03 0.05 0.05 0.04 0.04 0.05 0.05 0.05 0.05 0.05 0.05 0.05 0.04 0.02 0.02 0.02 0.02 0.01 0.01 0.01 0.01 0.01 0.01 0.01 0.01
0.03 0.03 0.02 0.01 0.00 0.00 0.00 0.00 0.00 0.00 0.01 0.01 0.01 0.02 0.01 0.01 0.01 0.01 0.01 0.02 0.03 0.03 0.03 0.03 0.03 0.04 0.06 0.06 0.05 0.04 0.04 0.04 0.02 0.02 0.01 0.01 0.02 0.02 0.01 0.01 0.01 0.01 0.01 0.01
0.03 0.03 0.02 0.01 0.00 0.00 0.01 0.01 0.00 0.01 0.01 0.01 0.02 0.02 0.02 0.01 0.01 0.01 0.01 0.01 0.01 0.02 0.03 0.03 0.03 0.03 0.03 0.04 0.04 0.03 0.04 0.04 0.03 0.02 0.02 0.02 0.02 0.02 0.01 0.01 0.01 0.01 0.01 0.01
0.03 0.03 0.02 0.01 0.00 0.00 0.02 0.01 0.01 0.01 0.02 0.03 0.02 0.01 0.01 0.01 0.01 0.01 0.01 0.01 0.02 0.03 0.04 0.04 0.04 0.04 0.03 0.03 0.03 0.02 0.02 0.04 0.03 0.02 0.02 0.02 0.02 0.02 0.01 0.01 0.01 0.02 0.01 0.01
0.03 0.03 0.02 0.01 0.00 0.01 0.01 0.00 0.01 0.00 0.01 0.01 0.02 0.01 0.01 0.00 0.00 0.00 0.01 0.01 0.02 0.04 0.05 0.05 0.04 0.04 0.04 0.03 0.02 0.02 0.02 0.04 0.05 0.03 0.02 0.01 0.02 0.02 0.01 0.01 0.01 0.02 0.02 0.02
0.02 0.01 0.01 0.01 0.01 0.01 0.01 0.01 0.01 0.00 0.00 0.00 0.00 0.00 0.00 0.01 0.01 0.01 0.01 0.02 0.02 0.04 0.05 0.05 0.04 0.04 0.03 0.03 0.02 0.02 0.02 0.04 0.06 0.05 0.03 0.02 0.02 0.02 0.02 0.01 0.01 0.01 0.01 0.02
0.02 0.01 0.01 0.01 0.00 0.00 0.00 0.00 0.00 0.00 0.00 0.00 0.00 0.00 0.00 0.01 0.01 0.02 0.02 0.02 0.02 0.04 0.06 0.05 0.03 0.03 0.03 0.03 0.03 0.03 0.03 0.03 0.05 0.05 0.04 0.03 0.03 0.02 0.01 0.01 0.02 0.02 0.02 0.02
0.02 0.01 0.01 0.01 0.01 0.01 0.01 0.00 0.00 0.01 0.01 0.01 0.01 0.00 0.00 0.01 0.02 0.02 0.02 0.02 0.02 0.03 0.05 0.05 0.03 0.02 0.02 0.02 0.03 0.04 0.04 0.03 0.03 0.03 0.04 0.03 0.03 0.02 0.01 0.01 0.01 0.01 0.02 0.03
0.02 0.02 0.02 0.02 0.01 0.01 0.01 0.01 0.01 0.01 0.01 0.01 0.01 0.01 0.00 0.01 0.01 0.01 0.01 0.01 0.02 0.02 0.05 0.05 0.02 0.02 0.02 0.02 0.02 0.03 0.04 0.03 0.03 0.03 0.03 0.02 0.02 0.01 0.01 0.01 0.01 0.01 0.01 0.02
0.00 0.01 0.02 0.02 0.02 0.02 0.01 0.01 0.01 0.01 0.01 0.01 0.01 0.01 0.01 0.01 0.01 0.01 0.01 0.02 0.03 0.03 0.04 0.04 0.02 0.01 0.01 0.02 0.02 0.03 0.03 0.04 0.03 0.03 0.02 0.03 0.02 0.02 0.01 0.01 0.01 0.01 0.00 0.01
0.00 0.00 0.00 0.01 0.01 0.01 0.01 0.00 0.00 0.01 0.01 0.01 0.01 0.01 0.01 0.01 0.01 0.01 0.02 0.03 0.03 0.05 0.04 0.03 0.02 0.01 0.01 0.01 0.02 0.02 0.02 0.02 0.02 0.02 0.02 0.02 0.03 0.02 0.01 0.01 0.01 0.01 0.00 0.00
0.00 0.00 0.00 0.01 0.01 0.00 0.00 0.00 0.00 0.00 0.01 0.01 0.01 0.01 0.01 0.01 0.01 0.01 0.02 0.04 0.04 0.06 0.05 0.03 0.01 0.01 0.00 0.01 0.01 0.02 0.02 0.02 0.01 0.01 0.02 0.02 0.02 0.01 0.01 0.01 0.01 0.01 0.01 0.00
0.00 0.00 0.00 0.00 0.00 0.00 0.00 0.00 0.00 0.00 0.01 0.01 0.01 0.01 0.01 0.01 0.01 0.02 0.02 0.04 0.04 0.05 0.05 0.03 0.01 0.01 0.01 0.01 0.01 0.01 0.01 0.01 0.01 0.01 0.01 0.01 0.01 0.01 0.01 0.01 0.00 0.01 0.00 0.00
0.00 0.01 0.00 0.00 0.00 0.00 0.00 0.00 0.00 0.01 0.01 0.01 0.01 0.01 0.01 0.01 0.02 0.02 0.02 0.03 0.03 0.03 0.03 0.03 0.01 0.01 0.01 0.01 0.01 0.01 0.01 0.00 0.00 0.00 0.01 0.01 0.01 0.01 0.01 0.00 0.00 0.00 0.00 0.00
0.00 0.00 0.00 0.00 0.00 0.00 0.00 0.00 0.00 0.01 0.01 0.01 0.02 0.02 0.01 0.01 0.01 0.02 0.02 0.02 0.03 0.02 0.02 0.03 0.02 0.02 0.02 0.01 0.02 0.01 0.00 0.00 0.00 0.00 0.00 0.01 0.00 0.00 0.00 0.00 0.00 0.00 0.00 0.00
0.00 0.00 0.00 0.00 0.00 0.00 0.00 0.00 0.00 0.01 0.01 0.01 0.02 0.01 0.00 0.00 0.00 0.01 0.01 0.02 0.02 0.02 0.02 0.02 0.01 0.02 0.01 0.01 0.01 0.01 0.00 0.00 0.01 0.01 0.01 0.01 0.00 0.00 0.00 0.00 0.00 0.00 0.00 0.00
0.00 0.00 0.00 0.00 0.00 0.00 0.00 0.00 0.00 0.00 0.00 0.01 0.01 0.01 0.00 0.00 0.00 0.00 0.01 0.01 0.01 0.02 0.01 0.01 0.01 0.01 0.00 0.00 0.00 0.00 0.00 0.00 0.01 0.01 0.01 0.00 0.00 0.00 0.00 0.00 0.00 0.00 0.00 0.00
0.00 0.00 0.00 0.00 0.00 0.00 0.00 0.00 0.00 0.01 0.00 0.01 0.01 0.00 0.00 0.00 0.00 0.00 0.01 0.01 0.01 0.01 0.01 0.01 0.01 0.00 0.00 0.00 0.00 0.00 0.00 0.00 0.00 0.00 0.00 0.00 0.00 0.00 0.00 0.00 0.00 0.00 0.00 0.00
0.00 0.00 0.00 0.00 0.00 0.01 0.01 0.01 0.01 0.01 0.01 0.00 0.00 0.00 0.00 0.00 0.00 0.01 0.01 0.01 0.01 0.01 0.01 0.01 0.01 0.00 0.00 0.00 0.00 0.00 0.00 0.00 0.00 0.00 0.00 0.00 0.00 0.00 0.00 0.00 0.00 0.00 0.00 0.01
0.00 0.00 0.00 0.00 0.00 0.01 0.02 0.03 0.02 0.01 0.00 0.00 0.00 0.00 0.00 0.00 0.00 0.00 0.00 0.00 0.00 0.01 0.01 0.01 0.01 0.00 0.00 0.00 0.00 0.00 0.00 0.00 0.00 0.00 0.00 0.00 0.00 0.00 0.00 0.00 0.00 0.00 0.00 0.01
0.01 0.01 0.01 0.01 0.01 0.02 0.03 0.02 0.01 0.00 0.00 0.00 0.00 0.00 0.00 0.00 0.00 0.00 0.00 0.00 0.00 0.00 0.00 0.01 0.01 0.01 0.00 0.00 0.00 0.00 0.00 0.00 0.00 0.00 0.00 0.00 0.00 0.00 0.00 0.00 0.00 0.00 0.00 0.01
0.01 0.01 0.01 0.01 0.02 0.02 0.01 0.01 0.00 0.00 0.00 0.00 0.00 0.00 0.00 0.00 0.00 0.00 0.00 0.00 0.00 0.00 0.00 0.00 0.00 0.00 0.00 0.00 0.00 0.00 0.00 0.00 0.00 0.00 0.00 0.00 0.00 0.00 0.00 0.00 0.00 0.00 0.00 0.01
0.01 0.01 0.01 0.01 0.01 0.00 0.00 0.00 0.00 0.00 0.00 0.00 0.00 0.00 0.00 0.00 0.00 0.00 0.00 0.00 0.00 0.00 0.00 0.00 0.00 0.00 0.00 0.00 0.00 0.00 0.00 0.00 0.00 0.00 0.00 0.00 0.00 0.00 0.01 0.01 0.01 0.01 0.01 0.01
0.01 0.01 0.01 0.00 0.00 0.00 0.00 0.00 0.00 0.00 0.00 0.00 0.00 0.00 0.00 0.00 0.00 0.00 0.00 0.00 0.00 0.00 0.00 0.00 0.00 0.00 0.00 0.00 0.00 0.00 0.00 0.00 0.00 0.00 0.00 0.00 0.00 0.00 0.00 0.01 0.00 0.01 0.01 0.01
MSLP
1012.43 1012.28 1012.08 1011.85 1011.58 1011.26 1010.91 1010.53 1010.16 1009.81 1009.53 1009.35 1009.30 1009.41 1009.67 1010.07 1010.57 1011.10 1011.63 1012.07 1012.39 1012.55 1012.54 1012.39 1012.12 1011.78 1011.41 1011.06 1010.77 1010.56 1010.44 1010.41 1010.46 1010.59 1010.80 1011.09 1011.46 1011.91 1012.44 1013.04 1013.69 1014.36 1015.02 1015.62
1012.22 1012.02 1011.74 1011.39 1010.99 1010.55 1010.09 1009.66 1009.27 1008.98 1008.79 1008.75 1008.88 1009.16 1009.58 1010.10 1010.69 1011.28 1011.81 1012.24 1012.52 1012.63 1012.58 1012.38 1012.08 1011.70 1011.31 1010.94 1010.62 1010.39 1010.25 1010.21 1010.27 1010.42 1010.67 1011.01 1011.45 1011.97 1012.56 1013.21 1013.89 1014.58 1015.23 1015.81
1011.87 1011.66 1011.34 1010.93 1010.46 1009.94 1009.43 1008.97 1008.59 1008.35 1008.25 1008.34 1008.60 1009.02 1009.57 1010.19 1010.84 1011.46 1011.98 1012.37 1012.59 1012.63 1012.50 1012.22 1011.85 1011.41 1010.97 1010.56 1010.22 1009.97 1009.84 1009.82 1009.92 1010.14 1010.47 1010.89 1011.42 1012.02 1012.68 1013.38 1014.08 1014.77 1015.41 1015.95
1011.31 1011.12 1010.82 1010.42 1009.94 1009.43 1008.93 1008.48 1008.15 1007.96 1007.95 1008.13 1008.50 1009.01 1009.64 1010.32 1011.00 1011.61 1012.10 1012.42 1012.55 1012.49 1012.26 1011.88 1011.42 1010.90 1010.40 1009.94 1009.58 1009.34 1009.23 1009.27 1009.44 1009.75 1010.18 1010.72 1011.34 1012.03 1012.76 1013.50 1014.23 1014.91 1015.51 1016.03
1010.51 1010.36 1010.13 1009.80 1009.40 1008.96 1008.54 1008.17 1007.92 1007.81 1007.88 1008.13 1008.56 1009.12 1009.78 1010.47 1011.12 1011.69 1012.11 1012.35 1012.38 1012.21 1011.87 1011.40 1010.84 1010.24 1009.68 1009.19 1008.82 1008.59 1008.53 1008.63 1008.90 1009.32 1009.86 1010.52 1011.24 1012.02 1012.81 1013.59 1014.32 1014.98 1015.56 1016.03
1009.47 1009.39 1009.25 1009.05 1008.79 1008.50 1008.22 1007.99 1007.85 1007.84 1007.98 1008.28 1008.73 1009.30 1009.94 1010.59 1011.19 1011.69 1012.03 1012.17 1012.11 1011.85 1011.41 1010.85 1010.22 1009.57 1008.96 1008.45 1008.08 1007.89 1007.88 1008.07 1008.43 1008.96 1009.62 1010.37 1011.19 1012.04 1012.87 1013.66 1014.39 1015.03 1015.57 1016.01
1008.29 1008.26 1008.23 1008.18 1008.10 1008.01 1007.92 1007.86 1007.87 1007.97 1008.19 1008.53 1008.98 1009.52 1010.11 1010.69 1011.21 1011.62 1011.87 1011.94 1011.80 1011.47 1010.98 1010.37 1009.70 1009.02 1008.41 1007.91 1007.57 1007.42 1007.47 1007.73 1008.19 1008.80 1009.55 1010.39 1011.27 1012.16 1013.01 1013.80 1014.50 1015.11 1015.62 1016.03
1007.07 1007.08 1007.15 1007.26 1007.38 1007.50 1007.62 1007.76 1007.93 1008.15 1008.44 1008.80 1009.24 1009.73 1010.25 1010.75 1011.19 1011.52 1011.71 1011.72 1011.54 1011.19 1010.69 1010.09 1009.42 1008.77 1008.18 1007.71 1007.42 1007.32 1007.43 1007.76 1008.27 1008.95 1009.76 1010.64 1011.54 1012.44 1013.28 1014.05 1014.72 1015.28 1015.75 1016.12
1005.96 1005.98 1006.13 1006.38 1006.68 1007.01 1007.34 1007.66 1007.99 1008.32 1008.68 1009.06 1009.48 1009.92 1010.36 1010.79 1011.15 1011.43 1011.57 1011.57 1011.41 1011.09 1010.63 1010.08 1009.48 1008.89 1008.36 1007.95 1007.72 1007.67 1007.83 1008.20 1008.75 1009.46 1010.27 1011.15 1012.05 1012.91 1013.72 1014.44 1015.05 1015.57 1015.99 1016.34
1005.09 1005.09 1005.29 1005.64 1006.09 1006.58 1007.09 1007.58 1008.04 1008.48 1008.88 1009.28 1009.67 1010.06 1010.45 1010.81 1011.13 1011.37 1011.52 1011.54 1011.43 1011.19 1010.82 1010.38 1009.88 1009.39 1008.95 1008.62 1008.44 1008.45 1008.64 1009.03 1009.58 1010.28 1011.06 1011.91 1012.75 1013.56 1014.30 1014.95 1015.51 1015.97 1016.35 1016.67
1004.52 1004.48 1004.70 1005.11 1005.66 1006.29 1006.92 1007.53 1008.09 1008.60 1009.04 1009.44 1009.81 1010.16 1010.50 1010.82 1011.12 1011.36 1011.55 1011.63 1011.61 1011.48 1011.25 1010.93 1010.56 1010.19 1009.86 1009.61 1009.50 1009.54 1009.75 1010.13 1010.65 1011.30 1012.03 1012.80 1013.57 1014.30 1014.96 1015.54 1016.03 1016.44 1016.78 1017.07
1004.23 1004.16 1004.38 1004.83 1005.44 1006.14 1006.85 1007.53 1008.15 1008.69 1009.15 1009.54 1009.89 1010.21 1010.52 1010.83 1011.13 1011.40 1011.64 1011.81 1011.90 1011.90 1011.81 1011.63 1011.40 1011.15 1010.92 1010.76 1010.70 1010.76 1010.97 1011.32 1011.79 1012.38 1013.03 1013.71 1014.39 1015.02 1015.60 1016.11 1016.54 1016.90 1017.20 1017.46
1004.12 1004.05 1004.28 1004.75 1005.39 1006.12 1006.87 1007.59 1008.22 1008.77 1009.23 1009.60 1009.93 1010.23 1010.52 1010.83 1011.14 1011.46 1011.77 1012.03 1012.23 1012.35 1012.39 1012.34 1012.24 1012.10 1011.96 1011.86 1011.84 1011.92 1012.11 1012.42 1012.84 1013.34 1013.91 1014.50 1015.08 1015.63 1016.13 1016.57 1016.95 1017.26 1017.54 1017.77
1004.04 1004.02 1004.28 1004.78 1005.44 1006.19 1006.95 1007.67 1008.31 1008.84 1009.28 1009.64 1009.94 1010.22 1010.51 1010.82 1011.16 1011.52 1011.89 1012.23 1012.52 1012.74 1012.89 1012.95 1012.95 1012.90 1012.83 1012.78 1012.78 1012.86 1013.03 1013.30 1013.66 1014.09 1014.58 1015.08 1015.58 1016.06 1016.49 1016.87 1017.20 1017.49 1017.73 1017.95
1003.83 1003.92 1004.27 1004.82 1005.52 1006.29 1007.06 1007.77 1008.39 1008.91 1009.32 1009.66 1009.95 1010.22 1010.50 1010.82 1011.18 1011.57 1011.98 1012.37 1012.73 1013.03 1013.25 1013.39 1013.45 1013.46 1013.44 1013.43 1013.44 1013.52 1013.67 1013.90 1014.21 1014.58 1015.00 1015.44 1015.87 1016.28 1016.66 1017.00 1017.29 1017.55 1017.77 1017.97
1003.39 1003.65 1004.13 1004.79 1005.55 1006.36 1007.14 1007.85 1008.46 1008.96 1009.36 1009.68 1009.95 1010.22 1010.51 1010.83 1011.20 1011.61 1012.04 1012.47 1012.86 1013.20 1013.46 1013.64 1013.75 1013.80 1013.81 1013.81 1013.84 1013.91 1014.04 1014.25 1014.52 1014.84 1015.21 1015.59 1015.97 1016.34 1016.67 1016.97 1017.23 1017.47 1017.67 1017.85
1002.70 1003.18 1003.83 1004.62 1005.48 1006.35 1007.16 1007.89 1008.50 1008.99 1009.39 1009.70 1009.98 1010.24 1010.53 1010.86 1011.24 1011.65 1012.09 1012.52 1012.92 1013.28 1013.56 1013.76 1013.89 1013.95 1013.98 1014.00 1014.04 1014.11 1014.23 1014.42 1014.66 1014.96 1015.28 1015.63 1015.97 1016.29 1016.59 1016.85 1017.09 1017.30 1017.47 1017.63
1001.83 1002.54 1003.39 1004.34 1005.31 1006.25 1007.12 1007.87 1008.50 1009.01 1009.41 1009.73 1010.01 1010.29 1010.58 1010.92 1011.29 1011.71 1012.14 1012.57 1012.97 1013.32 1013.60 1013.81 1013.95 1014.03 1014.08 1014.11 1014.16 1014.23 1014.35 1014.53 1014.75 1015.02 1015.31 1015.62 1015.93 1016.21 1016.47 1016.71 1016.91 1017.09 1017.24 1017.36
1000.91 1001.85 1002.89 1003.98 1005.07 1006.09 1007.01 1007.80 1008.46 1008.99 1009.41 1009.75 1010.05 1010.34 1010.65 1010.99 1011.38 1011.79 1012.22 1012.64 1013.03 1013.38 1013.66 1013.88 1014.03 1014.12 1014.19 1014.24 1014.29 1014.38 1014.50 1014.67 1014.88 1015.12 1015.38 1015.65 1015.91 1016.16 1016.38 1016.57 1016.74 1016.88 1016.99 1017.09
1000.12 1001.24 1002.43 1003.64 1004.82 1005.90 1006.87 1007.70 1008.38 1008.94 1009.38 1009.75 1010.08 1010.39 1010.72 1011.08 1011.47 1011.89 1012.32 1012.74 1013.13 1013.48 1013.77 1014.00 1014.17 1014.28 1014.37 1014.44 1014.51 1014.61 1014.73 1014.88 1015.06 1015.27 1015.49 1015.72 1015.93 1016.13 1016.30 1016.45 1016.58 1016.67 1016.75 1016.81
999.60 1000.83 1002.11 1003.39 1004.61 1005.73 1006.72 1007.56 1008.27 1008.84 1009.31 1009.71 1010.07 1010.41 1010.77 1011.15 1011.56 1011.99 1012.43 1012.86 1013.26 1013.62 1013.93 1014.18 1014.37 1014.51 1014.62 1014.72 1014.80 1014.90 1015.01 1015.14 1015.30 1015.46 1015.63 1015.80 1015.96 1016.10 1016.23 1016.33 1016.41 1016.46 1016.51 1016.53
999.42 1000.67 1001.97 1003.25 1004.47 1005.59 1006.57 1007.41 1008.12 1008.71 1009.20 1009.62 1010.01 1010.39 1010.77 1011.18 1011.61 1012.06 1012.51 1012.96 1013.38 1013.76 1014.09 1014.36 1014.59 1014.76 1014.90 1015.01 1015.10 1015.20 1015.29 1015.40 1015.51 1015.62 1015.73 1015.84 1015.94 1016.02 1016.09 1016.15 1016.19 1016.21 1016.22 1016.21
999.55 1000.77 1002.02 1003.25 1004.42 1005.48 1006.43 1007.25 1007.95 1008.53 1009.04 1009.48 1009.89 1010.29 1010.71 1011.14 1011.59 1012.06 1012.53 1012.99 1013.43 1013.83 1014.19 1014.49 1014.74 1014.95 1015.10 1015.23 1015.33 1015.41 1015.48 1015.55 1015.61 1015.67 1015.72 1015.77 1015.81 1015.84 1015.86 1015.87 1015.88 1015.87 1015.86 1015.84
999.91 1001.03 1002.19 1003.33 1004.41 1005.41 1006.30 1007.08 1007.75 1008.33 1008.83 1009.29 1009.72 1010.14 1010.57 1011.02 1011.48 1011.96 1012.44 1012.91 1013.37 1013.79 1014.16 1014.49 1014.76 1014.98 1015.16 1015.29 1015.39 1015.45 1015.50 1015.53 1015.54 1015.55 1015.55 1015.54 1015.53 1015.51 1015.50 1015.48 1015.47 1015.45 1015.42 1015.38
1000.36 1001.36 1002.40 1003.43 1004.42 1005.33 1006.16 1006.89 1007.53 1008.10 1008.60 1009.06 1009.50 1009.93 1010.36 1010.81 1011.28 1011.75 1012.23 1012.70 1013.15 1013.58 1013.96 1014.30 1014.58 1014.82 1015.00 1015.13 1015.22 1015.27 1015.30 1015.29 1015.27 1015.23 1015.18 1015.14 1015.09 1015.05 1015.01 1014.98 1014.95 1014.93 1014.90 1014.86
1000.75 1001.64 1002.57 1003.50 1004.40 1005.24 1006.01 1006.70 1007.31 1007.86 1008.36 1008.81 1009.25 1009.67 1010.10 1010.54 1010.98 1011.44 1011.89 1012.35 1012.78 1013.19 1013.57 1013.90 1014.19 1014.42 1014.61 1014.74 1014.82 1014.86 1014.87 1014.84 1014.79 1014.73 1014.66 1014.59 1014.53 1014.48 1014.43 1014.40 1014.38 1014.36 1014.33 1014.30
1000.98 1001.79 1002.64 1003.49 1004.32 1005.11 1005.84 1006.50 1007.10 1007.63 1008.12 1008.57 1008.99 1009.39 1009.80 1010.20 1010.61 1011.03 1011.45 1011.86 1012.26 1012.65 1013.00 1013.32 1013.60 1013.83 1014.00 1014.13 1014.22 1014.25 1014.25 1014.22 1014.17 1014.10 1014.03 1013.96 1013.90 1013.85 1013.82 1013.80 1013.79 1013.77 1013.76 1013.73
Thickness
5693 5696 5694 5689 5689 5689 5683 5682 5678 5683 5684 5685 5683 5679 5675 5669 5664 5659 5655 5651 5647 5643 5638 5635 5632 5629 5625 5621 5617 5613 5610 5607 5605 5601 5599 5597 5594 5593 5592 5592 5591 5590 5590 5590
5685 5691 5689 5685 5688 5687 5685 5684 5682 5682 5681 5686 5681 5676 5669 5664 5659 5655 5651 5647 5643 5638 5633 5629 5625 5621 5617 5614 5610 5607 5604 5602 5599 5595 5592 5590 5588 5587 5585 5585 5583 5583 5583 5583
5676 5685 5681 5676 5687 5685 5684 5686 5682 5676 5680 5680 5673 5667 5663 5660 5656 5652 5647 5643 5638 5633 5628 5623 5619 5615 5611 5608 5604 5601 5598 5596 5594 5590 5587 5584 5582 5581 5579 5577 5576 5576 5576 5576
5673 5670 5658 5684 5695 5690 5683 5683 5684 5680 5679 5675 5669 5664 5661 5658 5653 5648 5643 5638 5633 5628 5623 5619 5615 5611 5607 5604 5600 5597 5594 5591 5588 5585 5582 5579 5577 5574 5572 5571 5570 5569 5569 5569
5666 5664 5670 5684 5688 5685 5677 5676 5682 5676 5673 5670 5666 5660 5655 5652 5649 5644 5639 5633 5629 5625 5620 5616 5611 5607 5603 5599 5596 5593 5589 5586 5583 5581 5578 5575 5572 5569 5567 5565 5564 5564 5563 5562
5665 5656 5658 5677 5687 5687 5677 5668 5678 5674 5668 5664 5660 5655 5652 5646 5642 5638 5633 5628 5625 5622 5617 5612 5607 5603 5599 5595 5592 5588 5586 5582 5579 5576 5574 5571 5567 5565 5563 5561 5559 5559 5558 5557
5662 5659 5670 5683 5683 5678 5660 5665 5672 5671 5666 5661 5656 5653 5646 5641 5636 5632 5627 5623 5620 5617 5612 5608 5603 5599 5595 5592 5588 5585 5582 5579 5575 5572 5570 5567 5563 5561 5559 5558 5556 5555 5554 5553
5664 5658 5664 5681 5676 5669 5668 5670 5668 5665 5662 5656 5650 5644 5638 5634 5630 5626 5623 5619 5615 5612 5607 5603 5600 5596 5592 5588 5585 5582 5578 5576 5572 5569 5568 5565 5561 5559 5557 5555 5554 5554 5552 5552
5672 5672 5679 5679 5676 5675 5672 5666 5663 5660 5657 5651 5643 5637 5632 5628 5625 5622 5619 5615 5612 5608 5603 5599 5596 5593 5589 5585 5583 5580 5577 5574 5571 5568 5566 5563 5560 5558 5556 5555 5556 5554 5553 5553
5671 5676 5677 5677 5676 5674 5670 5665 5662 5658 5652 5647 5640 5634 5629 5625 5622 5618 5615 5612 5608 5604 5600 5596 5593 5590 5587 5584 5581 5578 5575 5572 5569 5567 5565 5562 5560 5559 5557 5556 5555 5554 5553 5553
5667 5673 5673 5673 5673 5671 5667 5663 5658 5654 5649 5643 5637 5630 5626 5621 5618 5615 5612 5608 5606 5602 5598 5595 5591 5588 5586 5583 5580 5577 5574 5571 5569 5568 5566 5561 5560 5557 5555 5553 5552 5550 5552 5552
5669 5676 5672 5671 5671 5668 5662 5658 5655 5650 5645 5641 5635 5628 5624 5620 5616 5613 5609 5606 5603 5601 5597 5594 5591 5588 5585 5582 5579 5576 5574 5572 5571 5569 5566 5564 5561 5558 5552 5551 5548 5546 5544 5544
5674 5677 5676 5672 5669 5665 5661 5657 5654 5649 5644 5638 5633 5629 5623 5619 5615 5612 5609 5606 5603 5600 5597 5593 5590 5587 5585 5583 5580 5577 5574 5572 5571 5569 5567 5565 5562 5561 5559 5554 5550 5547 5546 5544
5671 5670 5666 5666 5665 5663 5659 5655 5652 5647 5642 5638 5632 5627 5623 5619 5615 5611 5609 5606 5603 5600 5597 5594 5591 5588 5585 5583 5580 5577 5575 5572 5571 5570 5568 5567 5565 5564 5563 5562 5560 5558 5551 5547
5668 5670 5668 5667 5664 5660 5656 5653 5648 5644 5639 5635 5630 5626 5623 5618 5615 5612 5610 5607 5604 5601 5598 5595 5591 5588 5586 5583 5580 5578 5576 5575 5572 5572 5570 5569 5568 5567 5567 5565 5564 5563 5561 5556
5667 5668 5667 5664 5661 5657 5654 5651 5647 5643 5639 5634 5630 5626 5623 5619 5615 5612 5610 5608 5604 5602 5599 5596 5592 5590 5587 5585 5582 5580 5578 5573 5571 5573 5573 5572 5571 5570 5569 5568 5567 5566 5565 5564
5665 5663 5663 5661 5660 5657 5654 5652 5649 5644 5639 5635 5630 5626 5623 5619 5616 5613 5610 5609 5606 5603 5600 5596 5594 5592 5590 5587 5585 5584 5582 5579 5572 5574 5575 5575 5574 5573 5572 5571 5571 5570 5569 5567
5671 5670 5668 5666 5662 5658 5655 5652 5649 5645 5641 5637 5632 5627 5623 5620 5617 5614 5612 5609 5605 5603 5600 5598 5596 5594 5592 5590 5587 5587 5586 5584 5582 5580 5579 5578 5576 5576 5575 5575 5575 5573 5573 5572
5671 5670 5668 5665 5663 5659 5656 5653 5650 5646 5642 5638 5633 5629 5625 5622 5619 5616 5613 5610 5606 5604 5602 5600 5595 5594 5593 5592 5589 5588 5589 5588 5586 5584 5583 5578 5578 5578 5578 5578 5578 5578 5577 5576
5670 5669 5667 5664 5663 5660 5656 5653 5650 5646 5643 5639 5635 5631 5627 5624 5621 5618 5615 5612 5611 5610 5606 5603 5599 5597 5596 5594 5589 5593 5593 5591 5589 5587 5585 5585 5583 5582 5582 5582 5582 5581 5580 5580
5667 5667 5665 5663 5661 5660 5657 5654 5650 5646 5644 5641 5637 5634 5630 5627 5624 5621 5618 5616 5614 5611 5608 5602 5602 5602 5600 5597 5591 5596 5595 5593 5591 5589 5588 5587 5587 5586 5586 5585 5584 5583 5582 5582
5666 5665 5664 5662 5660 5657 5656 5654 5651 5648 5645 5642 5640 5637 5634 5629 5627 5625 5622 5621 5618 5611 5610 5610 5608 5604 5602 5597 5599 5599 5598 5596 5594 5593 5591 5590 5589 5589 5588 5587 5586 5585 5585 5584
5665 5664 5663 5661 5659 5657 5655 5654 5652 5649 5646 5643 5641 5639 5637 5635 5633 5630 5626 5624 5621 5614 5614 5615 5609 5603 5599 5600 5602 5602 5601 5599 5597 5596 5595 5594 5593 5592 5591 5590 5589 5588 5587 5587
5663 5662 5661 5660 5658 5655 5653 5653 5652 5649 5648 5646 5644 5642 5639 5637 5635 5635 5632 5625 5620 5615 5617 5614 5607 5603 5598 5605 5606 5605 5604 5603 5601 5600 5599 5598 5597 5596 5595 5593 5591 5591 5590 5589
5663 5662 5660 5658 5656 5656 5654 5652 5650 5649 5649 5648 5646 5644 5643 5642 5639 5637 5635 5630 5622 5618 5620 5615 5609 5605 5606 5610 5610 5609 5608 5607 5606 5604 5602 5600 5599 5598 5597 5595 5594 5592 5592 5591
5661 5661 5661 5660 5661 5661 5659 5656 5654 5653 5652 5650 5648 5647 5645 5643 5641 5639 5635 5632 5628 5622 5624 5622 5618 5611 5614 5615 5614 5612 5611 5609 5607 5605 5603 5601 5600 5598 5597 5596 5594 5592 5591 5590
5661 5661 5660 5661 5662 5663 5662 5660 5658 5656 5656 5654 5651 5649 5648 5646 5643 5641 5638 5635 5633 5630 5630 5628 5626 5623 5622 5620 5618 5615 5613 5611 5609 5607 5604 5601 5599 5597 5596 5594 5594 5592 5590 5589